JST484 YWLM-YBCG

Flight info

Callsign JST484
Flight time N/A
Altitude 19000
Route UBSON V535 NICLA/N0390F200 V535 LOSKU/N0450F370 DCT VEGAH
Aircraft A320/M-SDE3FGHIRWY/LB1

Departure

Time 2026-04-28 05:15
Airport Newcastle Airport (YWLM)

Arrival

Time N/A
Airport Gold Coast Airport (YBCG)
Time Latitude Longitude Altitude Speed Heading
2026-04-28 05:04 -32.80472 151.84145 27 ft 0 kts 236°
2026-04-28 05:07 -32.80470 151.84149 27 ft 2 kts 235°
2026-04-28 05:07 -32.80460 151.84165 27 ft 2 kts 238°
2026-04-28 05:08 -32.80452 151.84182 27 ft 2 kts 244°
2026-04-28 05:08 -32.80446 151.84201 27 ft 2 kts 274°
2026-04-28 05:08 -32.80450 151.84217 27 ft 1 kts 309°
2026-04-28 05:08 -32.80452 151.84221 27 ft 0 kts 310°
2026-04-28 05:09 -32.80447 151.84213 27 ft 0 kts 311°
2026-04-28 05:09 -32.80446 151.84211 27 ft 1 kts 311°
2026-04-28 05:10 -32.80427 151.84186 27 ft 7 kts 310°
2026-04-28 05:10 -32.80387 151.84129 27 ft 10 kts 310°
2026-04-28 05:10 -32.80337 151.84059 27 ft 12 kts 310°
2026-04-28 05:10 -32.80278 151.83977 27 ft 14 kts 311°
2026-04-28 05:11 -32.80203 151.83874 27 ft 18 kts 310°
2026-04-28 05:11 -32.80089 151.83825 27 ft 19 kts
2026-04-28 05:11 -32.79948 151.83851 27 ft 22 kts
2026-04-28 05:11 -32.79813 151.83933 27 ft 23 kts 52°
2026-04-28 05:12 -32.79732 151.83966 27 ft 11 kts 319°
2026-04-28 05:12 -32.79674 151.83890 27 ft 14 kts 314°
2026-04-28 05:12 -32.79599 151.83784 27 ft 19 kts 310°
2026-04-28 05:12 -32.79509 151.83657 27 ft 22 kts 310°
2026-04-28 05:13 -32.79393 151.83497 27 ft 32 kts 310°
2026-04-28 05:13 -32.79241 151.83284 27 ft 35 kts 310°
2026-04-28 05:13 -32.79080 151.83059 27 ft 36 kts 311°
2026-04-28 05:13 -32.78912 151.82826 27 ft 38 kts 310°
2026-04-28 05:14 -32.78742 151.82588 27 ft 36 kts 310°
2026-04-28 05:14 -32.78624 151.82406 27 ft 23 kts 281°
2026-04-28 05:14 -32.78711 151.82299 27 ft 18 kts 184°
2026-04-28 05:14 -32.78774 151.82344 27 ft 0 kts 132°
2026-04-28 05:15 -32.78813 151.82395 27 ft 25 kts 132°
2026-04-28 05:15 -32.79084 151.82769 27 ft 103 kts 130°
2026-04-28 05:15 -32.79697 151.83628 169 ft 156 kts 130°
2026-04-28 05:15 -32.80431 151.84664 914 ft 167 kts 129°
2026-04-28 05:16 -32.81182 151.85702 1994 ft 163 kts 128°
2026-04-28 05:16 -32.81933 151.86657 3084 ft 153 kts 139°
2026-04-28 05:16 -32.82800 151.87251 4183 ft 132 kts 157°
2026-04-28 05:17 -32.84681 151.87348 5094 ft 160 kts 195°
2026-04-28 05:17 -32.85621 151.86849 5961 ft 138 kts 214°
2026-04-28 05:17 -32.86338 151.86086 6437 ft 148 kts 231°
2026-04-28 05:17 -32.86892 151.84960 6896 ft 153 kts 251°
2026-04-28 05:18 -32.87099 151.83808 7654 ft 139 kts 268°
2026-04-28 05:18 -32.86992 151.82556 7818 ft 169 kts 286°
2026-04-28 05:18 -32.86538 151.81357 8650 ft 147 kts 305°
2026-04-28 05:18 -32.85863 151.80470 9110 ft 154 kts 322°
2026-04-28 05:19 -32.84831 151.79763 9355 ft 171 kts 343°
2026-04-28 05:19 -32.83778 151.79506 10265 ft 147 kts
2026-04-28 05:19 -32.82686 151.79641 10346 ft 177 kts 19°
2026-04-28 05:19 -32.81605 151.80233 11017 ft 156 kts 39°
2026-04-28 05:20 -32.80798 151.81041 11394 ft 169 kts 46°
2026-04-28 05:20 -32.79691 151.82245 10600 ft 260 kts 39°
2026-04-28 05:20 -32.78109 151.83461 11238 ft 273 kts 34°
2026-04-28 05:20 -32.76405 151.84452 12279 ft 277 kts 12°
2026-04-28 05:21 -32.74487 151.84380 13371 ft 276 kts 348°
2026-04-28 05:21 -32.72640 151.84036 14388 ft 268 kts 359°
2026-04-28 05:21 -32.70729 151.84136 14785 ft 282 kts